Regional Weather Roundup
Issued by NWS Charleston, SC

Current Version | Previous Version | Text Only | Print | Product List | Glossary Off
Versions: 1 2 3 4 5 6 7 8 9 10 11 12 13 14 15 16 17 18 19 20 21 22 23 24 25 26 27 28 29 30 31 32 33 34 35 36 37 38 39 40 41 42 43 44 45 46 47 48 49 50
000 ASUS42 KCHS 250012 RWRCHS REGIONAL WEATHER ROUNDUP NATIONAL WEATHER SERVICE CHARLESTON SC 800 PM EDT SUN MAY 24 2015 NOTE: "FAIR" INDICATES FEW OR NO CLOUDS BELOW 12,000 FEET WITH NO SIGNIFICANT WEATHER AND/OR OBSTRUCTIONS TO VISIBILITY. NOT ALL STATIONS ARE QUALITY CONTROLLED BY THE NATIONAL WEATHER SERVICE. USE DATA WITH CAUTION...ESPECIALLY DEWPOINT OBSERVATIONS. SCZ027-030-031-034>040-042>050-250100- ...SOUTHEAST SOUTH CAROLINA... CITY SKY/WX TMP DP RH WIND PRES REMARKS N CHARLESTON PTCLDY 75 59 57 E13 30.31R 6HR MIN TEMP: 75; 6HR MAX TEMP: 82; WATERFRONT PAR N/A 75 65 70 E16 30.28R MOUNT PLEASANT LGT RAIN 73 61 64 E5 30.31S JOHNS ISLAND PTCLDY 75 63 64 E10 30.31R PINOPOLIS N/A 79 61 53 SE7 30.23R MONCKS CORNER FAIR 75 59 57 SE6 30.31R SUMMERVILLE FAIR 77 61 57 E8 30.31S BEAUFORT MCAS MOCLDY 75 62 64 E13 30.29S 6HR MIN TEMP: 75; 6HR MAX TEMP: 81; BEAUFORT ARPT FAIR 73 64 73 E12 30.29S HILTON HEAD IS MOCLDY 75 64 69 NE10G17 30.30R WALTERBORO CLEAR 73 61 64 E7 30.31R ALLENDALE FAIR 77 61 57 SE6 30.28R ...SOUTHERN MIDLANDS AND PEE DEE... CITY SKY/WX TMP DP RH WIND PRES REMARKS GEORGETOWN NOT AVBL KINGSTREE NOT AVBL ORANGEBURG CLEAR 77 56 48 VRB6 30.30R 6HR MIN TEMP: 77; 6HR MAX TEMP: 83; BARNWELL FAIR 79 59 50 E9 30.28S AIKEN FAIR 77 50 38 E9G16 30.31R MANNING FAIR 73 54 49 SE3 30.31R COLUMBIA PTCLDY 79 55 43 SE13 30.27S 6HR MIN TEMP: 79; 6HR MAX TEMP: 85; SUMTER CLEAR 77 55 46 SE9 30.28S 6HR MIN TEMP: 77; 6HR MAX TEMP: 85; 6HR PCP: TRACE; FLORENCE CLEAR 76 54 46 SE8 30.30S 6HR MIN TEMP: 76; 6HR MAX TEMP: 85; MYRTLE BEACH PTCLDY 75 57 53 SE15 30.34S N MYRTLE BEACH CLEAR 75 58 55 SE8 30.32F 6HR MIN TEMP: 75; 6HR MAX TEMP: 80; $$ GAZ063-065-086>088-099>101-113>116-118-119-134>141-150-250100- ...SOUTHEAST GEORGIA... CITY SKY/WX TMP DP RH WIND PRES REMARKS SAVANNAH ARPT MOCLDY 76 63 64 E15 30.28R 6HR MIN TEMP: 76; 6HR MAX TEMP: 83; HUNTER AAF MOCLDY 76 65 70 E14 30.25S 6HR MIN TEMP: 76; 6HR MAX TEMP: 83; 6HR PCP: TRACE; FORT STEWART MOCLDY 76 65 68 E9 30.25R 6HR MIN TEMP: 76; 6HR MAX TEMP: 84; 6HR PCP: TRACE; STATESBORO CLEAR 77 67 70 SE7 30.28R SYLVANIA CLEAR 78 65 66 SE9 30.29R CLAXTON FAIR 77 64 65 E9 30.27R ...CSRA...CENTRAL AND FAR SOUTHEAST GEORGIA... CITY SKY/WX TMP DP RH WIND PRES REMARKS THOMSON CLEAR 82 58 44 CALM 30.29S AUGUSTA-BUSH CLEAR 78 57 48 SE8 30.25R 6HR MIN TEMP: 78; 6HR MAX TEMP: 85; AUGUSTA-DANIEL PTCLDY 81 56 42 SE7 30.27R SWAINSBORO FAIR 81 59 47 E9 30.26R VIDALIA N/A 79 55 44 SE5 30.25R EASTMAN FAIR 82 60 46 SE7 30.24R HAZLEHURST FAIR 81 57 44 E6 30.23R ALMA CLEAR 78 60 53 E7G17 30.23R 6HR MIN TEMP: 78; 6HR MAX TEMP: 87; WAYCROSS CLEAR 79 65 62 E10 30.23S JESUP FAIR 79 70 73 E6 30.26R BAXLEY FAIR 79 61 53 E5 30.24R BRUNSWICK N/A 77 68 73 NE7 30.26R SAINT SIMONS NOT AVBL $$ SCZ027-028-034-036>038-045-046-048>050-GAZ119-141-250100- ...LAKE AND SUPPLEMENTAL COASTAL OBSERVATIONS... STATION/POSITION TIME TEMP WIND PRES WAVE SWELL AIR SEA DIR/SP/G HT/PER HT/PER/DIR (UTC) (F) (DEG/KT/KT) (MB) (FT/S) (FT/S/D) UPR LAKE MARION NOT AVBL WINYAH BAY 2245 76 110/ 10 1026.0 LAKE MURRAY 2300 80 120/ 6/ 10 1024.4S ACE BASIN NERRS NOT AVBL FORT PULASKI 2300 76 79 70/ 21/ 23 1025.7R SAPELO ISLAND 2300 78 60/ 13 1024.0S $$ ANZ835-935-AMZ111-154-330-350-352-354-370-450-454-472-250100- ...C-MAN AND BUOY OBSERVATIONS... STATION/POSITION TIME TEMP WIND PRES WAVE SWELL AIR SEA DIR/SP/G HT/PER HT/PER/DIR (UTC) (F) (DEG/KT/KT) (MB) (FT/S) (FT/S/D) BUOY 41004 2350 76 75 90/ 17/ 21 1025.4S 6/ 7 2/11 BUOY 41008 2350 76 75 100/ 10/ 12 1024.5R 4/ 8 3/100/ 8 FOLLY BEACH CMAN 2300 75 90/ 16/ 18 1026.2S CAPERS NEARSHORE NOT AVBL FRIPP NEARSHORE 2300 76 80/ 16/ 19 1024.7R STATION/POSITION TIME TEMP WIND PRES WAVE SWELL AIR SEA DIR/SP/G HT/PER HT/PER/DIR (UTC) (F) (DEG/KT/KT) (MB) (FT/S) (FT/S/D) 5E ST. MARYS GA 2321 78 N/A 4/ 8 FRYING PAN BUOY 2350 75 74 120/ 14/ 16 1027.4F 4/ 6 BUOY 41025 2350 74 78 100/ 6/ 8 1027.9R 2/ 6 2/ 50/ 6 CAPE LOOKOUT NC 2300 74 110/ 7/ 8 1027.2F BUOY 41002 2350 72 74 90/ 14/ 16 1026.9R 5/ 7 2/ 70/ 9 BUOY 41010 2320 78 80 80/ 17/ 21 1022.3F ST AUGUSTINE FL 0000 77 78 70/ 14/ 16 1023.7R $$

USA.gov is the U.S. government's official web portal to all federal, state and local government web resources and services.